Sugar Grove, IL

6:25 PM CDT on July 25, 2016 (GMT -0500)
Aurora Municipal

Weather History for KARR - September, 2013

Change the Weather History Date:

Friday, September 20, 2013

  Actual Average Record
Temperature  
Mean Temperature 64 °F 61 °F  
Max Temperature 74 °F 73 °F 83 °F (2008)
Min Temperature 54 °F 49 °F 34 °F (2003)
Degree Days  
Heating Degree Days 1 5  
Month to date heating degree days 46 55  
Since 1 July heating degree days 74 79  
Cooling Degree Days 0 1  
Month to date cooling degree days 101 54  
Year to date cooling degree days 728 638  
Growing Degree Days 14 (Base 50)    
Moisture  
Dew Point 62 °F    
Average Humidity 75    
Maximum Humidity 93    
Minimum Humidity 57    
Precipitation  
Precipitation 0.02 in 0.13 in 0.56 in (2000)
Month to date precipitation 0.75 2.12  
Year to date precipitation 26.98 27.32  
Sea Level Pressure  
Sea Level Pressure 29.83 in    
Wind  
Wind Speed 10 mph (WSW)    
Max Wind Speed 22 mph    
Max Gust Speed 28 mph    
Visibility 10 miles    
Events Rain , Thunderstorm    
T = Trace of Precipitation, MM = Missing Value Source: NWS Daily Summary

Daily Weather History Graph

Daily Weather History Graph

Search for Another Location

Airport or City:

Trip Planner

Search our weather history database for the weather conditions in past years. The results will help you decide how hot, cold, wet, or windy it might be!

Date:

Astronomy

Sep. 20, 2013 Rise Set
Actual Time 6:39 AM CDT 6:54 PM CDT
Civil Twilight 6:11 AM CDT 7:21 PM CDT
Nautical Twilight 5:39 AM CDT 7:54 PM CDT
Astronomical Twilight 5:05 AM CDT 8:27 PM CDT
Moon 7:25 PM CDT (9/20) 7:55 AM CDT (9/20)
Length of Visible Light 13h 10m
Length of Day
12h 14m
Full, 98% of the Moon is Illuminated
Sep 20
Full
Sep 26
Last Quarter
Oct 4
New
Oct 11
First Quarter
Oct 18
Full

Hourly Weather History & Observations

Time (CDT) Temp. Dew Point Humidity Pressure Visibility Wind Dir Wind Speed Gust Speed Precip Events Conditions
12:03 AM 73.4 °F 62.6 °F 69% 29.85 in 10.0 mi SSW 11.5 mph - 0.00 in Thunderstorm Thunderstorm
12:52 AM 70.0 °F 64.9 °F 84% 29.86 in 9.0 mi WSW 11.5 mph - 0.09 in Rain Light Rain
1:07 AM 69.8 °F 64.4 °F 83% 29.85 in 10.0 mi West 11.5 mph - 0.01 in Rain , Thunderstorm Light Rain
1:22 AM 69.8 °F 64.4 °F 83% 29.85 in 10.0 mi WSW 10.4 mph - 0.03 in Rain Light Rain
1:52 AM 68.0 °F 64.9 °F 90% 29.81 in 10.0 mi SW 4.6 mph - 0.03 in   Clear
2:52 AM 66.9 °F 64.9 °F 93% 29.77 in 10.0 mi SW 5.8 mph - 0.00 in   Scattered Clouds
3:52 AM 66.9 °F 64.9 °F 93% 29.80 in 10.0 mi SSW 8.1 mph - N/A   Scattered Clouds
4:27 AM 66.2 °F 64.4 °F 94% 29.83 in 10.0 mi SW 10.4 mph - N/A   Mostly Cloudy
4:52 AM 66.9 °F 64.9 °F 93% 29.82 in 9.0 mi SW 9.2 mph - N/A   Overcast
5:19 AM 66.2 °F 64.4 °F 94% 29.84 in 10.0 mi SSW 8.1 mph - N/A   Overcast
5:38 AM 66.2 °F 64.4 °F 94% 29.83 in 10.0 mi SW 6.9 mph - N/A   Overcast
5:52 AM 66.9 °F 64.9 °F 93% 29.81 in 10.0 mi WSW 6.9 mph - N/A   Overcast
6:20 AM 68.0 °F 64.4 °F 88% 29.84 in 10.0 mi SW 9.2 mph - N/A   Overcast
6:52 AM 68.0 °F 64.9 °F 90% 29.84 in 10.0 mi SW 8.1 mph - N/A   Overcast
7:29 AM 68.0 °F 64.4 °F 88% 29.85 in 9.0 mi SW 9.2 mph - N/A   Overcast
7:52 AM 68.0 °F 64.9 °F 90% 29.84 in 10.0 mi SW 8.1 mph - N/A   Overcast
8:14 AM 68.0 °F 64.4 °F 88% 29.85 in 10.0 mi SW 9.2 mph - N/A   Overcast
8:24 AM 68.0 °F 64.4 °F 88% 29.85 in 9.0 mi SW 9.2 mph - N/A   Overcast
8:52 AM 69.1 °F 66.0 °F 90% 29.83 in 10.0 mi WSW 9.2 mph - N/A   Overcast
9:03 AM 69.8 °F 66.2 °F 88% 29.85 in 10.0 mi WSW 9.2 mph - N/A   Overcast
9:52 AM 70.0 °F 66.0 °F 87% 29.84 in 10.0 mi WSW 11.5 mph - N/A   Overcast
10:17 AM 69.8 °F 66.2 °F 88% 29.85 in 9.0 mi West 10.4 mph - N/A   Overcast
10:36 AM 71.6 °F 64.4 °F 78% 29.85 in 10.0 mi West 12.7 mph - N/A   Mostly Cloudy
10:52 AM 72.0 °F 64.9 °F 78% 29.83 in 10.0 mi West 12.7 mph - N/A   Mostly Cloudy
11:07 AM 73.4 °F 64.4 °F 73% 29.85 in 10.0 mi WSW 10.4 mph - N/A   Scattered Clouds
11:29 AM 73.4 °F 62.6 °F 69% 29.84 in 10.0 mi West 13.8 mph - N/A   Mostly Cloudy
11:38 AM 73.4 °F 64.4 °F 73% 29.84 in 10.0 mi West 12.7 mph 18.4 mph N/A   Scattered Clouds
11:52 AM 73.0 °F 63.0 °F 71% 29.83 in 10.0 mi West 10.4 mph - N/A   Partly Cloudy
12:52 PM 73.0 °F 62.1 °F 68% 29.82 in 10.0 mi West 15.0 mph 18.4 mph N/A   Partly Cloudy
1:52 PM 73.0 °F 61.0 °F 66% 29.81 in 10.0 mi WSW 12.7 mph - N/A   Partly Cloudy
2:52 PM 72.0 °F 60.1 °F 66% 29.80 in 10.0 mi SW 11.5 mph - N/A   Partly Cloudy
3:52 PM 71.1 °F 57.0 °F 61% 29.81 in 10.0 mi West 15.0 mph 23.0 mph N/A   Clear
4:52 PM 69.1 °F 53.1 °F 57% 29.81 in 10.0 mi West 12.7 mph - N/A   Clear
5:52 PM 66.9 °F 53.1 °F 61% 29.82 in 10.0 mi WNW 19.6 mph 25.3 mph N/A   Partly Cloudy
6:52 PM 62.1 °F 52.0 °F 70% 29.83 in 10.0 mi West 8.1 mph - N/A   Clear
7:52 PM 59.0 °F 52.0 °F 78% 29.84 in 10.0 mi West 5.8 mph - N/A   Clear
8:52 PM 55.9 °F 52.0 °F 87% 29.85 in 10.0 mi West 5.8 mph - N/A   Clear
9:52 PM 55.9 °F 52.0 °F 87% 29.86 in 10.0 mi West 5.8 mph - N/A   Clear
10:52 PM 55.0 °F 52.0 °F 89% 29.86 in 10.0 mi West 5.8 mph - N/A   Clear
11:52 PM 55.0 °F 52.0 °F 89% 29.85 in 10.0 mi West 5.8 mph - N/A   Clear